"SCET";"TARGET";"ELECTRON_DENSITY";"ERROR_FLAG";"ELECTRON_DENSITY_ERROR";"FREQ_FCE";"MEASURED_VALUE";"MEASURED_ITEM";"FREQ_PLASMA";"FREQ_UPPER_HYBRID";"FREQ_R_EQUALS_ZERO";"FREQ_L_EQUALS_ZERO";"ORBIT_NUMBER";"SATURN_RADIUS";"SATURN_IAU_LONGITUDE";"SATURN_SLS4_S_LONGITUDE";"SATURN_SLS4_N_LONGITUDE";"SATURN_SLS5_S_LONGITUDE";"SATURN_SLS5_N_LONGITUDE";"SATURN_LOCAL_TIME";"SATURN_KRONOGRAPHIC_LATITUDE";"SATURN_MAGNETIC_LATITUDE";"SATURN_L";"SATURN_L_OFFSET";"SATURN_SOLAR_EQUATORIAL_X";"SATURN_SOLAR_EQUATORIAL_Y";"SATURN_SOLAR_EQUATORIAL_Z";"SATURN_ALTITUDE";"ENCELADUS_ENCOUNTER_NUMBER";"ENCELADUS_RADIUS";"ENCELADUS_COROTATIONAL_X";"ENCELADUS_COROTATIONAL_Y";"ENCELADUS_COROTATIONAL_Z";"ENCELADUS_TRUE_ANOMALY";"ENCELADUS_PERIAPSIS_TIME";"JUPITER_RADIUS";"JUPITER_SYSTEMIII_LONGITUDE";"JUPITER_MAGNETIC_LATITUDE";"JUPITER_MAGNETIC_LOCAL_TIME";"JUPITER_L";"IO_PHASE";"EARTH_RADIUS";"EARTH_MAGNETIC_LATITUDE";"EARTH_LOCAL_TIME";"EARTH_L"
"[UTC]";"[0=Saturn, 1=Enceladus, 2=Jupiter, 3=Earth]";"[cm-3]";"[0=automated, 1=manual]";"[normalized density error]";"[Hz]";"[Hz]";"[0=upper hybrid frequency, 1=plasma frequency cutoff]";"[Hz]";"[Hz]";"[Hz]";"[Hz}";"[0, A, B, C, 3, 4, ... , 292, 293]";"[Rs where 1Rs=60268km]";"[degrees]";"[degrees]";"[degrees]";"[degrees]";"[degrees]";"[hours]";"[degrees]";"[degrees where offset=2293km north]";"[Rs where 1Rs=60268km]";"[Rs where 1Rs=60268km and offset=2293km north]";"[Rs where 1Rs=60268km]";"[Rs where 1Rs=60268km]";"[Rs where 1Rs=60268km]";"[km where ellipsoid a,b=60268km and c=54364km]";"[E0, E1, E2, ... , E21, E22]";"[Renc where 1Renc=252.1km]";"[Renc where 1Renc=252.1km]";"[Renc where 1Renc=252.1km]";"[Renc where 1Renc=252.1km]";"[degrees]";"[UTC]";"[Rj where 1Rj=71492km]";"[degrees]";"[degrees using JRM09 model]";"[hours using JRM09 model]";"[Rj where 1Rj=71492km]";"[degrees]";"[Re where 1Re=6378.1366km]";"[degrees]";"[hours]";"[Re where 1Re=6378.1366km]"
2016-01-14T00:00:00.174Z;0;3.0810e+01;0;     0.108;  2550.044;  49911.926; 0;  49846.742;  49911.926;  51138.066;  48588.023;230;   5.848; 155.902;;;  94.895; 125.895;   9.352;   1.332;   0.959;   5.851;   5.842;   4.498;  -3.736;   0.136;;;;;;;;;;;;;;;;;;
2016-01-14T00:00:08.174Z;0;3.0920e+01;0;     0.111;  2550.044;  49997.387; 0;  49932.312;  49997.387;  51223.613;  48673.566;230;   5.847; 155.965;;;  94.958; 125.957;   9.353;   1.332;   0.959;   5.850;   5.840;   4.497;  -3.734;   0.136;;;;;;;;;;;;;;;;;;
2016-01-14T00:00:16.174Z;0;3.0880e+01;0;     0.106;  2550.044;  49970.484; 0;  49905.375;  49970.484;  51196.684;  48646.641;230;   5.846; 156.028;;;  95.021; 126.018;   9.354;   1.332;   0.959;   5.849;   5.839;   4.497;  -3.732;   0.136;;;;;;;;;;;;;;;;;;
2016-01-14T00:00:24.174Z;0;3.1130e+01;0;     0.120;  2550.044;  50170.027; 0;  50105.180;  50170.027;  51396.422;  48846.375;230;   5.844; 156.091;;;  95.084; 126.080;   9.355;   1.332;   0.959;   5.848;   5.838;   4.497;  -3.730;   0.136;;;;;;;;;;;;;;;;;;
2016-01-14T00:00:32.174Z;0;3.1050e+01;0;     0.112;  2550.044;  50101.895; 0;  50036.957;  50101.895;  51328.223;  48778.176;230;   5.843; 156.154;;;  95.147; 126.142;   9.356;   1.332;   0.959;   5.846;   5.836;   4.497;  -3.729;   0.136;;;;;;;;;;;;;;;;;;
2016-01-14T00:00:48.174Z;0;3.1030e+01;0;     0.110;  2550.044;  50088.590; 0;  50023.637;  50088.590;  51314.902;  48764.859;230;   5.841; 156.279;;;  95.273; 126.265;   9.357;   1.332;   0.959;   5.844;   5.834;   4.496;  -3.725;   0.136;;;;;;;;;;;;;;;;;;
2016-01-14T00:00:56.174Z;0;3.0960e+01;0;     0.122;  2550.044;  50030.016; 0;  49964.984;  50030.016;  51256.273;  48706.230;230;   5.839; 156.342;;;  95.336; 126.327;   9.358;   1.332;   0.959;   5.843;   5.833;   4.496;  -3.723;   0.136;;;;;;;;;;;;;;;;;;
2016-01-14T00:01:04.174Z;0;3.0880e+01;0;     0.114;  2563.848;  49963.879; 0;  49898.055;  49963.879;  51196.441;  48632.594;230;   5.838; 156.405;;;  95.399; 126.389;   9.359;   1.332;   0.959;   5.841;   5.831;   4.496;  -3.721;   0.136;;;;;;;;;;;;;;;;;;
2016-01-14T00:01:12.174Z;0;3.1150e+01;0;     0.118;  2563.848;  50185.160; 0;  50119.625;  50185.160;  51417.941;  48854.094;230;   5.837; 156.468;;;  95.462; 126.450;   9.360;   1.332;   0.959;   5.840;   5.830;   4.496;  -3.720;   0.136;;;;;;;;;;;;;;;;;;
2016-01-14T00:01:20.174Z;0;3.1370e+01;0;     0.123;  2563.848;  50357.805; 0;  50292.496;  50357.805;  51590.754;  49026.906;230;   5.836; 156.531;;;  95.525; 126.512;   9.361;   1.332;   0.959;   5.839;   5.829;   4.496;  -3.718;   0.136;;;;;;;;;;;;;;;;;;
2016-01-14T00:01:36.174Z;0;3.3100e+01;0;     0.113;  2563.848;  51724.316; 0;  51660.734;  51724.316;  52958.562;  50394.715;230;   5.833; 156.656;;;  95.651; 126.635;   9.362;   1.333;   0.959;   5.836;   5.826;   4.495;  -3.714;   0.136;;;;;;;;;;;;;;;;;;
2016-01-14T00:01:44.174Z;0;3.2740e+01;0;     0.123;  2563.848;  51445.734; 0;  51381.809;  51445.734;  52679.723;  50115.875;230;   5.832; 156.719;;;  95.714; 126.696;   9.363;   1.333;   0.959;   5.835;   5.825;   4.495;  -3.713;   0.136;;;;;;;;;;;;;;;;;;
2016-01-14T00:01:52.174Z;0;3.2250e+01;0;     0.114;  2563.848;  51059.363; 0;  50994.953;  51059.363;  52292.988;  49729.141;230;   5.831; 156.782;;;  95.777; 126.758;   9.364;   1.333;   0.959;   5.834;   5.824;   4.495;  -3.711;   0.136;;;;;;;;;;;;;;;;;;
2016-01-14T00:02:00.174Z;0;3.3280e+01;0;     0.118;  2572.528;  51866.129; 0;  51802.293;  51866.129;  53104.523;  50531.996;230;   5.829; 156.845;;;  95.839; 126.819;   9.365;   1.333;   0.959;   5.832;   5.822;   4.495;  -3.709;   0.136;;;;;;;;;;;;;;;;;;
2016-01-14T00:02:08.173Z;0;3.3060e+01;0;     0.109;  2572.528;  51698.676; 0;  51634.633;  51698.676;  52936.914;  50364.387;230;   5.828; 156.908;;;  95.902; 126.881;   9.365;   1.333;   0.959;   5.831;   5.821;   4.495;  -3.707;   0.136;;;;;;;;;;;;;;;;;;
2016-01-14T00:02:24.173Z;0;3.3940e+01;0;     0.117;  2572.528;  52375.805; 0;  52312.590;  52375.805;  53614.664;  51042.137;230;   5.825; 157.033;;;  96.028; 127.004;   9.367;   1.333;   0.959;   5.829;   5.819;   4.494;  -3.704;   0.135;;;;;;;;;;;;;;;;;;
2016-01-14T00:02:32.173Z;0;3.3420e+01;0;     0.118;  2572.528;  51974.320; 0;  51910.617;  51974.320;  53212.812;  50640.285;230;   5.824; 157.096;;;  96.090; 127.065;   9.368;   1.333;   0.959;   5.827;   5.817;   4.494;  -3.702;   0.135;;;;;;;;;;;;;;;;;;
2016-01-14T00:02:40.173Z;0;3.3930e+01;0;     0.110;  2572.528;  52370.012; 0;  52306.789;  52370.012;  53608.867;  51036.340;230;   5.823; 157.159;;;  96.153; 127.126;   9.369;   1.333;   0.959;   5.826;   5.816;   4.494;  -3.700;   0.135;;;;;;;;;;;;;;;;;;
2016-01-14T00:02:48.173Z;0;3.3750e+01;0;     0.115;  2572.528;  52231.133; 0;  52167.742;  52231.133;  53469.859;  50897.332;230;   5.822; 157.222;;;  96.216; 127.188;   9.369;   1.333;   0.959;   5.825;   5.815;   4.494;  -3.698;   0.135;;;;;;;;;;;;;;;;;;
2016-01-14T00:02:56.173Z;0;3.2990e+01;0;     0.113;  2572.528;  51642.023; 0;  51577.910;  51642.023;  52880.207;  50307.680;230;   5.820; 157.284;;;  96.279; 127.249;   9.370;   1.333;   0.959;   5.823;   5.814;   4.493;  -3.697;   0.135;;;;;;;;;;;;;;;;;;
2016-01-14T00:03:12.173Z;0;3.2630e+01;0;     0.108;  2587.032;  51364.621; 0;  51299.430;  51364.621;  52609.250;  50022.219;230;   5.818; 157.410;;;  96.404; 127.372;   9.372;   1.333;   0.958;   5.821;   5.811;   4.493;  -3.693;   0.135;;;;;;;;;;;;;;;;;;
2016-01-14T00:03:20.173Z;0;3.3150e+01;0;     0.117;  2587.032;  51764.688; 0;  51700.000;  51764.688;  53009.695;  50422.664;230;   5.817; 157.473;;;  96.466; 127.433;   9.373;   1.333;   0.958;   5.820;   5.810;   4.493;  -3.691;   0.135;;;;;;;;;;;;;;;;;;
2016-01-14T00:03:28.173Z;0;3.3360e+01;0;     0.106;  2587.032;  51930.672; 0;  51866.191;  51930.672;  53175.836;  50588.805;230;   5.815; 157.536;;;  96.529; 127.494;   9.374;   1.333;   0.958;   5.818;   5.808;   4.493;  -3.690;   0.135;;;;;;;;;;;;;;;;;;
2016-01-14T00:03:36.173Z;0;3.3330e+01;0;     0.103;  2587.032;  51905.996; 0;  51841.484;  51905.996;  53151.137;  50564.105;230;   5.814; 157.598;;;  96.591; 127.555;   9.374;   1.333;   0.958;   5.817;   5.807;   4.492;  -3.688;   0.135;;;;;;;;;;;;;;;;;;
2016-01-14T00:03:44.173Z;0;3.3210e+01;0;     0.115;  2587.032;  51813.191; 0;  51748.566;  51813.191;  53058.246;  50471.215;230;   5.813; 157.661;;;  96.654; 127.617;   9.375;   1.333;   0.958;   5.816;   5.806;   4.492;  -3.686;   0.135;;;;;;;;;;;;;;;;;;
2016-01-14T00:04:00.173Z;0;3.8350e+01;0;     0.134;  2597.504;  55673.738; 0;  55613.109;  55673.738;  56927.027;  54329.523;230;   5.810; 157.786;;;  96.779; 127.739;   9.377;   1.333;   0.958;   5.813;   5.803;   4.492;  -3.682;   0.135;;;;;;;;;;;;;;;;;;
2016-01-14T00:04:16.173Z;0;3.3100e+01;0;     0.111;  2597.504;  51729.473; 0;  51664.219;  51729.473;  52979.289;  50381.785;230;   5.808; 157.912;;;  96.904; 127.861;   9.379;   1.333;   0.958;   5.811;   5.801;   4.492;  -3.679;   0.135;;;;;;;;;;;;;;;;;;
2016-01-14T00:04:24.173Z;0;3.3840e+01;0;     0.117;  2597.504;  52306.148; 0;  52241.613;  52306.148;  53556.508;  50959.004;230;   5.806; 157.975;;;  96.966; 127.922;   9.379;   1.333;   0.958;   5.809;   5.800;   4.491;  -3.677;   0.135;;;;;;;;;;;;;;;;;;
2016-01-14T00:04:32.173Z;0;3.2840e+01;0;     0.119;  2597.504;  51527.684; 0;  51462.172;  51527.684;  52777.309;  50179.805;230;   5.805; 158.037;;;  97.029; 127.983;   9.380;   1.333;   0.958;   5.808;   5.798;   4.491;  -3.675;   0.135;;;;;;;;;;;;;;;;;;
2016-01-14T00:04:48.172Z;0;3.1180e+01;0;     0.112;  2597.504;  50209.129; 0;  50141.895;  50209.129;  51457.465;  48859.961;230;   5.803; 158.163;;;  97.153; 128.105;   9.382;   1.333;   0.958;   5.806;   5.796;   4.491;  -3.672;   0.135;;;;;;;;;;;;;;;;;;
2016-01-14T00:04:56.172Z;0;3.1410e+01;0;     0.129;  2597.504;  50391.562; 0;  50324.570;  50391.562;  51640.078;  49042.574;230;   5.801; 158.225;;;  97.216; 128.166;   9.383;   1.334;   0.958;   5.804;   5.795;   4.491;  -3.670;   0.135;;;;;;;;;;;;;;;;;;
2016-01-14T00:05:04.172Z;0;3.0880e+01;0;     0.114;  2613.100;  49967.551; 0;  49899.176;  49967.551;  51222.828;  48609.730;230;   5.800; 158.288;;;  97.278; 128.227;   9.383;   1.334;   0.958;   5.803;   5.793;   4.490;  -3.668;   0.135;;;;;;;;;;;;;;;;;;
2016-01-14T00:05:12.172Z;0;3.1100e+01;0;     0.120;  2613.100;  50146.941; 0;  50078.812;  50146.941;  51402.402;  48789.305;230;   5.799; 158.351;;;  97.340; 128.288;   9.384;   1.334;   0.958;   5.802;   5.792;   4.490;  -3.667;   0.135;;;;;;;;;;;;;;;;;;
2016-01-14T00:05:20.172Z;0;3.0780e+01;0;     0.111;  2613.100;  49889.340; 0;  49820.859;  49889.340;  51144.539;  48531.438;230;   5.797; 158.414;;;  97.402; 128.349;   9.385;   1.334;   0.958;   5.801;   5.791;   4.490;  -3.665;   0.135;;;;;;;;;;;;;;;;;;
2016-01-14T00:05:36.172Z;0;3.0700e+01;0;     0.112;  2613.100;  49825.195; 0;  49756.625;  49825.195;  51080.328;  48467.227;230;   5.795; 158.539;;;  97.527; 128.471;   9.387;   1.334;   0.958;   5.798;   5.788;   4.490;  -3.661;   0.135;;;;;;;;;;;;;;;;;;
2016-01-14T00:05:44.172Z;0;3.1060e+01;0;     0.116;  2613.100;  50115.117; 0;  50046.945;  50115.117;  51370.547;  48757.445;230;   5.794; 158.602;;;  97.589; 128.532;   9.388;   1.334;   0.958;   5.797;   5.787;   4.489;  -3.659;   0.135;;;;;;;;;;;;;;;;;;
2016-01-14T00:05:52.172Z;0;3.1240e+01;0;     0.122;  2613.100;  50259.781; 0;  50191.805;  50259.781;  51515.359;  48902.258;230;   5.792; 158.664;;;  97.651; 128.592;   9.388;   1.334;   0.958;   5.795;   5.786;   4.489;  -3.658;   0.135;;;;;;;;;;;;;;;;;;
2016-01-14T00:06:00.172Z;0;3.1020e+01;0;     0.124;  2626.848;  50082.812; 0;  50013.875;  50082.812;  51344.543;  48717.695;230;   5.791; 158.727;;;  97.713; 128.653;   9.389;   1.334;   0.958;   5.794;   5.784;   4.489;  -3.656;   0.135;;;;;;;;;;;;;;;;;;
2016-01-14T00:06:08.172Z;0;3.0390e+01;0;     0.107;  2626.848;  49570.426; 0;  49500.777;  49570.426;  50831.621;  48204.773;230;   5.790; 158.790;;;  97.775; 128.714;   9.390;   1.334;   0.957;   5.793;   5.783;   4.489;  -3.654;   0.135;;;;;;;;;;;;;;;;;;
2016-01-14T00:06:24.172Z;0;3.0990e+01;0;     0.113;  2626.848;  50061.176; 0;  49992.211;  50061.176;  51322.883;  48696.035;230;   5.787; 158.915;;;  97.899; 128.835;   9.392;   1.334;   0.957;   5.790;   5.781;   4.488;  -3.651;   0.135;;;;;;;;;;;;;;;;;;
2016-01-14T00:06:32.172Z;0;3.1100e+01;0;     0.118;  2626.848;  50150.578; 0;  50081.734;  50150.578;  51412.379;  48785.531;230;   5.786; 158.977;;;  97.961; 128.896;   9.393;   1.334;   0.957;   5.789;   5.779;   4.488;  -3.649;   0.135;;;;;;;;;;;;;;;;;;
2016-01-14T00:06:40.172Z;0;3.2170e+01;0;     0.123;  2626.848;  51004.699; 0;  50937.012;  51004.699;  52267.363;  49640.516;230;   5.785; 159.040;;;  98.023; 128.957;   9.393;   1.334;   0.957;   5.788;   5.778;   4.488;  -3.647;   0.135;;;;;;;;;;;;;;;;;;
2016-01-14T00:06:48.172Z;0;3.2560e+01;0;     0.127;  2626.848;  51307.570; 0;  51240.281;  51307.570;  52570.535;  49943.688;230;   5.783; 159.103;;;  98.085; 129.017;   9.394;   1.334;   0.957;   5.787;   5.777;   4.488;  -3.645;   0.135;;;;;;;;;;;;;;;;;;
2016-01-14T00:06:56.172Z;0;3.2800e+01;0;     0.107;  2626.848;  51497.293; 0;  51430.254;  51497.293;  52760.445;  50133.598;230;   5.782; 159.165;;;  98.147; 129.078;   9.395;   1.334;   0.957;   5.785;   5.775;   4.488;  -3.643;   0.135;;;;;;;;;;;;;;;;;;
2016-01-14T00:07:12.172Z;0;3.2130e+01;0;     0.115;  2648.380;  50974.277; 0;  50905.434;  50974.277;  52246.844;  49598.461;230;   5.780; 159.290;;;  98.271; 129.199;   9.397;   1.334;   0.957;   5.783;   5.773;   4.487;  -3.640;   0.135;;;;;;;;;;;;;;;;;;
2016-01-14T00:07:20.172Z;0;3.3640e+01;0;     0.123;  2648.380;  52149.926; 0;  52082.633;  52149.926;  53423.656;  50775.277;230;   5.778; 159.353;;;  98.333; 129.260;   9.398;   1.334;   0.957;   5.781;   5.772;   4.487;  -3.638;   0.135;;;;;;;;;;;;;;;;;;
2016-01-14T00:07:28.171Z;0;3.0730e+01;0;     0.126;  2648.380;  49854.559; 0;  49784.164;  49854.559;  51125.961;  48477.582;230;   5.777; 159.416;;;  98.395; 129.320;   9.398;   1.334;   0.957;   5.780;   5.770;   4.487;  -3.636;   0.135;;;;;;;;;;;;;;;;;;
2016-01-14T00:07:36.171Z;0;3.0980e+01;0;     0.124;  2648.380;  50055.500; 0;  49985.391;  50055.500;  51327.117;  48678.738;230;   5.776; 159.478;;;  98.457; 129.381;   9.399;   1.334;   0.957;   5.779;   5.769;   4.487;  -3.635;   0.134;;;;;;;;;;;;;;;;;;
2016-01-14T00:07:44.171Z;0;3.1040e+01;0;     0.124;  2648.380;  50103.012; 0;  50032.969;  50103.012;  51374.680;  48726.297;230;   5.774; 159.541;;;  98.519; 129.441;   9.400;   1.334;   0.957;   5.778;   5.768;   4.486;  -3.633;   0.134;;;;;;;;;;;;;;;;;;
2016-01-14T00:08:00.171Z;0;3.0550e+01;0;     0.113;  2657.732;  49703.543; 0;  49632.434;  49703.543;  50979.086;  48321.355;230;   5.772; 159.666;;;  98.642; 129.562;   9.402;   1.334;   0.957;   5.775;   5.765;   4.486;  -3.629;   0.134;;;;;;;;;;;;;;;;;;
2016-01-14T00:08:08.171Z;0;3.1130e+01;0;     0.118;  2657.732;  50174.855; 0;  50104.418;  50174.855;  51450.902;  48793.168;230;   5.771; 159.729;;;  98.704; 129.623;   9.403;   1.334;   0.957;   5.774;   5.764;   4.486;  -3.627;   0.134;;;;;;;;;;;;;;;;;;
2016-01-14T00:08:16.171Z;0;3.2800e+01;0;     0.133;  2657.732;  51499.832; 0;  51431.207;  51499.832;  52777.238;  50119.508;230;   5.769; 159.791;;;  98.766; 129.683;   9.403;   1.334;   0.957;   5.773;   5.763;   4.486;  -3.626;   0.134;;;;;;;;;;;;;;;;;;
2016-01-14T00:08:24.171Z;0;3.2750e+01;0;     0.125;  2657.732;  51455.641; 0;  51386.957;  51455.641;  52733.004;  50075.270;230;   5.768; 159.854;;;  98.828; 129.743;   9.404;   1.334;   0.957;   5.771;   5.761;   4.485;  -3.624;   0.134;;;;;;;;;;;;;;;;;;
2016-01-14T00:08:32.171Z;0;3.0670e+01;0;     0.124;  2657.732;  49803.598; 0;  49732.633;  49803.598;  51079.250;  48421.520;230;   5.767; 159.916;;;  98.889; 129.804;   9.405;   1.335;   0.957;   5.770;   5.760;   4.485;  -3.622;   0.134;;;;;;;;;;;;;;;;;;
2016-01-14T00:08:48.171Z;0;3.0290e+01;0;     0.142;  2657.732;  49494.457; 0;  49423.047;  49494.457;  50769.777;  48112.043;230;   5.764; 160.041;;;  99.013; 129.924;   9.407;   1.335;   0.957;   5.767;   5.758;   4.485;  -3.618;   0.134;;;;;;;;;;;;;;;;;;
2016-01-14T00:08:56.171Z;0;3.2770e+01;0;     0.129;  2657.732;  51475.938; 0;  51407.281;  51475.938;  52753.320;  50095.590;230;   5.763; 160.104;;;  99.074; 129.985;   9.408;   1.335;   0.957;   5.766;   5.756;   4.485;  -3.617;   0.134;;;;;;;;;;;;;;;;;;
2016-01-14T00:09:04.171Z;0;2.9420e+01;0;     0.150;  2673.412;  48778.570; 0;  48705.254;  48778.570;  50060.301;  47386.887;230;   5.762; 160.166;;;  99.136; 130.045;   9.408;   1.335;   0.956;   5.765;   5.755;   4.484;  -3.615;   0.134;;;;;;;;;;;;;;;;;;
2016-01-14T00:09:12.171Z;0;3.1350e+01;0;     0.123;  2673.412;  50350.141; 0;  50279.117;  50350.141;  51633.586;  48960.176;230;   5.760; 160.229;;;  99.197; 130.105;   9.409;   1.335;   0.956;   5.764;   5.754;   4.484;  -3.613;   0.134;;;;;;;;;;;;;;;;;;
2016-01-14T00:09:20.171Z;0;3.2590e+01;0;     0.086;  2673.412;  51332.328; 0;  51262.664;  51332.328;  52616.797;  49943.383;230;   5.759; 160.291;;;  99.259; 130.165;   9.410;   1.335;   0.956;   5.762;   5.752;   4.484;  -3.611;   0.134;;;;;;;;;;;;;;;;;;
2016-01-14T00:09:36.171Z;0;3.2680e+01;0;     0.098;  2673.412;  51407.859; 0;  51338.297;  51407.859;  52692.402;  50018.992;230;   5.757; 160.416;;;  99.382; 130.286;   9.412;   1.335;   0.956;   5.760;   5.750;   4.484;  -3.608;   0.134;;;;;;;;;;;;;;;;;;
2016-01-14T00:09:44.171Z;0;3.2790e+01;0;     0.097;  2673.412;  51494.160; 0;  51424.715;  51494.160;  52778.793;  50105.379;230;   5.755; 160.479;;;  99.443; 130.346;   9.413;   1.335;   0.956;   5.758;   5.749;   4.483;  -3.606;   0.134;;;;;;;;;;;;;;;;;;
2016-01-14T00:09:52.171Z;0;3.3900e+01;0;     0.107;  2673.412;  52350.672; 0;  52282.367;  52350.672;  53636.156;  50962.746;230;   5.754; 160.541;;;  99.505; 130.406;   9.413;   1.335;   0.956;   5.757;   5.747;   4.483;  -3.604;   0.134;;;;;;;;;;;;;;;;;;
2016-01-14T00:10:00.170Z;0;3.3450e+01;0;     0.104;  2685.956;  52004.129; 0;  51934.719;  52004.129;  53295.059;  50609.102;230;   5.753; 160.604;;;  99.566; 130.466;   9.414;   1.335;   0.956;   5.756;   5.746;   4.483;  -3.602;   0.134;;;;;;;;;;;;;;;;;;
2016-01-14T00:10:08.170Z;0;3.2950e+01;0;     0.122;  2685.956;  51620.910; 0;  51550.984;  51620.910;  52911.453;  50225.496;230;   5.752; 160.666;;;  99.628; 130.528;   9.415;   1.335;   0.956;   5.755;   5.745;   4.483;  -3.601;   0.134;;;;;;;;;;;;;;;;;;
2016-01-14T00:10:24.170Z;0;3.3510e+01;0;     0.116;  2685.956;  52052.211; 0;  51982.867;  52052.211;  53343.188;  50657.234;230;   5.749; 160.791;;;  99.752; 130.651;   9.417;   1.335;   0.956;   5.752;   5.742;   4.482;  -3.597;   0.134;;;;;;;;;;;;;;;;;;
2016-01-14T00:10:32.170Z;0;3.5310e+01;0;     0.120;  2685.956;  53431.078; 0;  53363.523;  53431.078;  54723.398;  52037.441;230;   5.748; 160.854;;;  99.815; 130.712;   9.418;   1.335;   0.956;   5.751;   5.741;   4.482;  -3.595;   0.134;;;;;;;;;;;;;;;;;;
2016-01-14T00:10:40.170Z;0;3.3950e+01;0;     0.107;  2685.956;  52392.629; 0;  52323.734;  52392.629;  53683.945;  50997.988;230;   5.746; 160.916;;;  99.877; 130.773;   9.418;   1.335;   0.956;   5.750;   5.740;   4.482;  -3.594;   0.134;;;;;;;;;;;;;;;;;;
2016-01-14T00:10:48.170Z;0;3.4450e+01;0;     0.111;  2685.956;  52776.289; 0;  52707.895;  52776.289;  54067.980;  51382.023;230;   5.745; 160.979;;;  99.939; 130.835;   9.419;   1.335;   0.956;   5.748;   5.738;   4.482;  -3.592;   0.134;;;;;;;;;;;;;;;;;;
2016-01-14T00:10:56.170Z;0;3.4010e+01;0;     0.117;  2685.956;  52438.891; 0;  52370.059;  52438.891;  53730.254;  51044.297;230;   5.744; 161.041;;; 100.001; 130.896;   9.420;   1.335;   0.956;   5.747;   5.737;   4.482;  -3.590;   0.134;;;;;;;;;;;;;;;;;;
2016-01-14T00:11:12.170Z;0;3.3450e+01;0;     0.109;  2698.780;  52003.148; 0;  51933.074;  52003.148;  53299.992;  50601.211;230;   5.741; 161.166;;; 100.125; 131.019;   9.422;   1.335;   0.956;   5.744;   5.735;   4.481;  -3.586;   0.134;;;;;;;;;;;;;;;;;;
2016-01-14T00:11:20.170Z;0;3.3500e+01;0;     0.114;  2698.780;  52044.777; 0;  51974.758;  52044.777;  53341.660;  50642.883;230;   5.740; 161.228;;; 100.187; 131.081;   9.423;   1.335;   0.956;   5.743;   5.733;   4.481;  -3.585;   0.134;;;;;;;;;;;;;;;;;;
2016-01-14T00:11:28.170Z;0;3.4160e+01;0;     0.107;  2698.780;  52553.531; 0;  52484.191;  52553.531;  53850.926;  51152.145;230;   5.739; 161.291;;; 100.249; 131.142;   9.424;   1.335;   0.956;   5.742;   5.732;   4.481;  -3.583;   0.134;;;;;;;;;;;;;;;;;;
2016-01-14T00:11:36.170Z;0;3.4030e+01;0;     0.108;  2698.780;  52452.730; 0;  52383.258;  52452.730;  53750.023;  51051.242;230;   5.737; 161.353;;; 100.311; 131.204;   9.424;   1.335;   0.956;   5.741;   5.731;   4.481;  -3.581;   0.134;;;;;;;;;;;;;;;;;;
2016-01-14T00:11:44.170Z;0;3.3490e+01;0;     0.106;  2698.780;  52034.020; 0;  51963.984;  52034.020;  53330.895;  50632.113;230;   5.736; 161.416;;; 100.373; 131.266;   9.425;   1.335;   0.956;   5.739;   5.730;   4.480;  -3.579;   0.134;;;;;;;;;;;;;;;;;;
2016-01-14T00:12:00.170Z;0;3.3420e+01;0;     0.112;  2713.060;  51988.129; 0;  51917.289;  51988.129;  53291.539;  50578.477;230;   5.734; 161.540;;; 100.497; 131.389;   9.427;   1.336;   0.955;   5.737;   5.727;   4.480;  -3.576;   0.134;;;;;;;;;;;;;;;;;;
2016-01-14T00:12:08.170Z;0;3.5800e+01;0;     0.119;  2713.060;  53802.027; 0;  53733.578;  53802.027;  55107.230;  52394.168;230;   5.732; 161.603;;; 100.559; 131.450;   9.428;   1.336;   0.955;   5.735;   5.726;   4.480;  -3.574;   0.134;;;;;;;;;;;;;;;;;;
2016-01-14T00:12:16.170Z;0;3.3500e+01;0;     0.114;  2713.060;  52048.535; 0;  51977.777;  52048.535;  53352.004;  50638.945;230;   5.731; 161.665;;; 100.621; 131.512;   9.429;   1.336;   0.955;   5.734;   5.724;   4.480;  -3.572;   0.134;;;;;;;;;;;;;;;;;;
2016-01-14T00:12:24.170Z;0;3.3610e+01;0;     0.115;  2713.060;  52134.484; 0;  52063.844;  52134.484;  53438.043;  50724.984;230;   5.730; 161.728;;; 100.683; 131.574;   9.429;   1.336;   0.955;   5.733;   5.723;   4.479;  -3.570;   0.134;;;;;;;;;;;;;;;;;;
2016-01-14T00:12:32.170Z;0;3.3830e+01;0;     0.123;  2713.060;  52303.738; 0;  52233.324;  52303.738;  53607.469;  50894.406;230;   5.729; 161.790;;; 100.745; 131.635;   9.430;   1.336;   0.955;   5.732;   5.722;   4.479;  -3.568;   0.134;;;;;;;;;;;;;;;;;;
2016-01-14T00:12:48.169Z;0;3.3020e+01;0;     0.123;  2713.060;  51675.488; 0;  51604.219;  51675.488;  52978.574;  50265.516;230;   5.726; 161.915;;; 100.869; 131.759;   9.432;   1.336;   0.955;   5.729;   5.719;   4.479;  -3.565;   0.133;;;;;;;;;;;;;;;;;;
2016-01-14T00:12:56.169Z;0;3.4500e+01;0;     0.117;  2713.060;  52818.688; 0;  52748.961;  52818.688;  54122.934;  51409.871;230;   5.725; 161.977;;; 100.931; 131.820;   9.433;   1.336;   0.955;   5.728;   5.718;   4.479;  -3.563;   0.133;;;;;;;;;;;;;;;;;;
2016-01-14T00:13:04.169Z;0;3.4250e+01;0;     0.122;  2724.064;  52627.094; 0;  52556.547;  52627.094;  53936.223;  51212.160;230;   5.723; 162.040;;; 100.993; 131.882;   9.434;   1.336;   0.955;   5.727;   5.717;   4.478;  -3.561;   0.133;;;;;;;;;;;;;;;;;;
2016-01-14T00:13:12.169Z;0;3.4470e+01;0;     0.118;  2724.064;  52793.371; 0;  52723.047;  52793.371;  54102.668;  51378.605;230;   5.722; 162.102;;; 101.055; 131.944;   9.435;   1.336;   0.955;   5.725;   5.716;   4.478;  -3.560;   0.133;;;;;;;;;;;;;;;;;;
2016-01-14T00:13:20.169Z;0;3.5760e+01;0;     0.116;  2724.064;  53767.672; 0;  53698.621;  53767.672;  55077.926;  52353.859;230;   5.721; 162.164;;; 101.116; 132.005;   9.435;   1.336;   0.955;   5.724;   5.714;   4.478;  -3.558;   0.133;;;;;;;;;;;;;;;;;;
2016-01-14T00:13:36.169Z;0;3.4400e+01;0;     0.113;  2724.064;  52737.191; 0;  52666.789;  52737.191;  54046.434;  51322.367;230;   5.718; 162.289;;; 101.240; 132.129;   9.437;   1.336;   0.955;   5.721;   5.712;   4.478;  -3.554;   0.133;;;;;;;;;;;;;;;;;;